Time,TemperatureF,DewpointF,PressureIn,WindDirection,WindDirectionDegrees,WindSpeedMPH,WindSpeedGustMPH,Humidity,HourlyPrecipIn,Conditions,Clouds,dailyrainin,SoftwareType,DateUTC
2013-05-04 00:02:00,37.2,31.9,29.95,NNW,341,0.0,-999.0,81,0.00,,,0.00,WeatherSnoop3.0,2013-05-04 05:02:00,
2013-05-04 00:07:00,37.2,31.9,29.95,NNW,342,0.0,-999.0,81,0.00,,,0.00,WeatherSnoop3.0,2013-05-04 05:07:00,
2013-05-04 00:12:00,37.1,31.8,29.95,NNW,338,0.0,-999.0,81,0.00,,,0.00,WeatherSnoop3.0,2013-05-04 05:12:00,
2013-05-04 00:17:00,37.0,31.7,29.94,NNW,338,0.0,-999.0,81,0.00,,,0.00,WeatherSnoop3.0,2013-05-04 05:17:00,
2013-05-04 00:22:00,36.9,31.6,29.94,NNE,28,0.0,-999.0,81,0.00,,,0.00,WeatherSnoop3.0,2013-05-04 05:22:00,
2013-05-04 00:27:00,36.9,31.6,29.94,NW,316,0.0,-999.0,81,0.00,,,0.00,WeatherSnoop3.0,2013-05-04 05:27:00,
2013-05-04 00:32:00,36.9,31.6,29.94,North,356,0.0,-999.0,81,0.00,,,0.00,WeatherSnoop3.0,2013-05-04 05:32:00,
2013-05-04 00:37:00,36.9,31.3,29.94,NW,313,0.0,-999.0,80,0.00,,,0.00,WeatherSnoop3.0,2013-05-04 05:37:00,
2013-05-04 00:42:00,36.8,31.2,29.94,NW,316,0.0,-999.0,80,0.00,,,0.00,WeatherSnoop3.0,2013-05-04 05:42:00,
2013-05-04 00:47:00,36.7,31.4,29.94,NW,316,0.0,-999.0,81,0.00,,,0.00,WeatherSnoop3.0,2013-05-04 05:47:00,
2013-05-04 00:52:00,36.6,31.3,29.94,NNW,331,0.0,-999.0,81,0.00,,,0.00,WeatherSnoop3.0,2013-05-04 05:52:00,
2013-05-04 00:57:00,36.4,31.4,29.94,NNW,331,0.0,-999.0,82,0.00,,,0.00,WeatherSnoop3.0,2013-05-04 05:57:00,
2013-05-04 01:02:00,36.1,31.1,29.94,NNW,332,0.0,-999.0,82,0.00,,,0.00,WeatherSnoop3.0,2013-05-04 06:02:00,
2013-05-04 01:07:00,36.0,31.0,29.94,NNW,327,0.0,-999.0,82,0.00,,,0.00,WeatherSnoop3.0,2013-05-04 06:07:00,
2013-05-04 01:12:00,35.9,31.0,29.93,WNW,301,0.0,-999.0,82,0.00,,,0.00,WeatherSnoop3.0,2013-05-04 06:12:00,
2013-05-04 01:17:00,36.0,30.7,29.93,West,271,0.0,-999.0,81,0.00,,,0.00,WeatherSnoop3.0,2013-05-04 06:17:00,
2013-05-04 01:22:00,36.0,30.7,29.93,West,271,0.0,-999.0,81,0.00,,,0.00,WeatherSnoop3.0,2013-05-04 06:22:00,
2013-05-04 01:27:00,35.7,30.5,29.93,West,280,0.0,-999.0,81,0.00,,,0.00,WeatherSnoop3.0,2013-05-04 06:27:00,
2013-05-04 01:32:00,35.5,30.6,29.93,WNW,282,1.0,-999.0,82,0.00,,,0.00,WeatherSnoop3.0,2013-05-04 06:32:00,
2013-05-04 01:37:00,35.5,30.3,29.92,WNW,283,0.0,-999.0,81,0.00,,,0.00,WeatherSnoop3.0,2013-05-04 06:37:00,
2013-05-04 01:42:00,35.6,30.4,29.93,WNW,282,1.0,-999.0,81,0.00,,,0.00,WeatherSnoop3.0,2013-05-04 06:42:00,
2013-05-04 01:47:00,35.7,30.5,29.92,West,278,0.0,-999.0,81,0.00,,,0.00,WeatherSnoop3.0,2013-05-04 06:47:00,
2013-05-04 01:52:00,35.9,30.6,29.92,WNW,284,0.0,-999.0,81,0.00,,,0.00,WeatherSnoop3.0,2013-05-04 06:52:00,
2013-05-04 01:57:00,36.1,30.5,29.92,West,278,1.0,-999.0,80,0.00,,,0.00,WeatherSnoop3.0,2013-05-04 06:57:00,
2013-05-04 02:02:00,36.3,30.7,29.92,West,271,1.0,-999.0,80,0.00,,,0.00,WeatherSnoop3.0,2013-05-04 07:02:00,
2013-05-04 02:07:00,36.5,30.9,29.92,West,280,1.0,-999.0,80,0.00,,,0.00,WeatherSnoop3.0,2013-05-04 07:07:00,
2013-05-04 02:12:00,36.8,30.9,29.91,West,270,1.0,-999.0,79,0.00,,,0.00,WeatherSnoop3.0,2013-05-04 07:12:00,
2013-05-04 02:17:00,37.0,31.1,29.91,WNW,284,0.0,-999.0,79,0.00,,,0.00,WeatherSnoop3.0,2013-05-04 07:17:00,
2013-05-04 02:22:00,37.2,31.3,29.91,West,274,2.0,-999.0,79,0.00,,,0.00,WeatherSnoop3.0,2013-05-04 07:22:00,
2013-05-04 02:27:00,37.2,31.3,29.91,West,269,0.0,-999.0,79,0.00,,,0.00,WeatherSnoop3.0,2013-05-04 07:27:00,
2013-05-04 02:32:00,37.2,31.0,29.91,WNW,283,2.0,-999.0,78,0.00,,,0.00,WeatherSnoop3.0,2013-05-04 07:32:00,
2013-05-04 02:37:00,37.4,30.9,29.91,West,281,2.0,-999.0,77,0.00,,,0.00,WeatherSnoop3.0,2013-05-04 07:37:00,
2013-05-04 02:42:00,37.9,30.7,29.90,WNW,292,2.0,-999.0,75,0.00,,,0.00,WeatherSnoop3.0,2013-05-04 07:42:00,
2013-05-04 02:47:00,38.2,31.0,29.90,West,281,2.0,-999.0,75,0.00,,,0.00,WeatherSnoop3.0,2013-05-04 07:47:00,
2013-05-04 02:52:00,38.1,30.9,29.90,West,259,1.0,-999.0,75,0.00,,,0.00,WeatherSnoop3.0,2013-05-04 07:52:00,
2013-05-04 02:57:00,37.9,30.7,29.90,West,277,3.0,-999.0,75,0.00,,,0.00,WeatherSnoop3.0,2013-05-04 07:57:00,
2013-05-04 03:02:00,37.9,30.7,29.90,West,281,1.0,-999.0,75,0.00,,,0.00,WeatherSnoop3.0,2013-05-04 08:02:00,
2013-05-04 03:07:00,37.9,30.7,29.90,NW,318,1.0,-999.0,75,0.00,,,0.00,WeatherSnoop3.0,2013-05-04 08:07:00,
2013-05-04 03:12:00,37.9,31.0,29.90,WNW,285,1.0,-999.0,76,0.00,,,0.00,WeatherSnoop3.0,2013-05-04 08:12:00,
2013-05-04 03:17:00,38.0,31.1,29.90,WNW,287,2.0,-999.0,76,0.00,,,0.00,WeatherSnoop3.0,2013-05-04 08:17:00,
2013-05-04 03:22:00,38.0,31.1,29.90,NW,305,3.0,-999.0,76,0.00,,,0.00,WeatherSnoop3.0,2013-05-04 08:22:00,
2013-05-04 03:27:00,37.9,31.0,29.90,NE,43,0.0,-999.0,76,0.00,,,0.00,WeatherSnoop3.0,2013-05-04 08:27:00,
2013-05-04 03:32:00,37.9,31.0,29.90,West,271,2.0,-999.0,76,0.00,,,0.00,WeatherSnoop3.0,2013-05-04 08:32:00,
2013-05-04 03:37:00,37.9,31.0,29.89,NNE,15,2.0,-999.0,76,0.00,,,0.00,WeatherSnoop3.0,2013-05-04 08:37:00,
2013-05-04 03:42:00,37.9,31.0,29.89,WNW,285,3.0,-999.0,76,0.00,,,0.00,WeatherSnoop3.0,2013-05-04 08:42:00,
2013-05-04 03:47:00,37.9,31.0,29.89,NNE,18,1.0,-999.0,76,0.00,,,0.00,WeatherSnoop3.0,2013-05-04 08:47:00,
2013-05-04 03:52:00,37.8,30.9,29.89,WNW,288,1.0,-999.0,76,0.00,,,0.00,WeatherSnoop3.0,2013-05-04 08:52:00,
2013-05-04 03:57:00,37.7,31.2,29.89,WNW,295,1.0,-999.0,77,0.00,,,0.00,WeatherSnoop3.0,2013-05-04 08:57:00,
2013-05-04 04:02:00,37.5,31.0,29.89,West,274,1.0,-999.0,77,0.00,,,0.00,WeatherSnoop3.0,2013-05-04 09:02:00,
2013-05-04 04:07:00,37.5,31.3,29.89,West,276,0.0,-999.0,78,0.00,,,0.00,WeatherSnoop3.0,2013-05-04 09:07:00,
2013-05-04 04:12:00,37.4,31.2,29.89,West,278,1.0,-999.0,78,0.00,,,0.00,WeatherSnoop3.0,2013-05-04 09:12:00,
2013-05-04 04:17:00,37.4,31.2,29.89,West,263,0.0,-999.0,78,0.00,,,0.00,WeatherSnoop3.0,2013-05-04 09:17:00,
2013-05-04 04:22:00,37.4,31.2,29.89,WNW,288,2.0,-999.0,78,0.00,,,0.00,WeatherSnoop3.0,2013-05-04 09:22:00,
2013-05-04 04:27:00,37.5,31.3,29.89,West,281,0.0,-999.0,78,0.00,,,0.00,WeatherSnoop3.0,2013-05-04 09:27:00,
2013-05-04 04:32:00,37.7,31.5,29.89,WSW,243,0.0,-999.0,78,0.00,,,0.00,WeatherSnoop3.0,2013-05-04 09:32:00,
2013-05-04 04:37:00,37.7,30.8,29.89,WNW,289,4.0,-999.0,76,0.00,,,0.00,WeatherSnoop3.0,2013-05-04 09:37:00,
2013-05-04 04:42:00,37.8,30.9,29.89,West,280,1.0,-999.0,76,0.00,,,0.00,WeatherSnoop3.0,2013-05-04 09:42:00,
2013-05-04 04:47:00,37.9,31.0,29.89,WNW,284,1.0,-999.0,76,0.00,,,0.00,WeatherSnoop3.0,2013-05-04 09:47:00,
2013-05-04 04:52:00,37.9,31.3,29.89,WSW,238,0.0,-999.0,77,0.00,,,0.00,WeatherSnoop3.0,2013-05-04 09:52:00,
2013-05-04 04:57:00,37.9,30.7,29.89,WNW,300,1.0,-999.0,75,0.00,,,0.00,WeatherSnoop3.0,2013-05-04 09:57:00,
2013-05-04 05:02:00,38.0,31.1,29.89,WNW,288,2.0,-999.0,76,0.00,,,0.00,WeatherSnoop3.0,2013-05-04 10:02:00,
2013-05-04 05:07:00,38.0,31.1,29.89,West,271,1.0,-999.0,76,0.00,,,0.00,WeatherSnoop3.0,2013-05-04 10:07:00,
2013-05-04 05:12:00,38.0,31.1,29.89,West,281,1.0,-999.0,76,0.00,,,0.00,WeatherSnoop3.0,2013-05-04 10:12:00,
2013-05-04 05:17:00,37.9,31.0,29.89,WNW,295,4.0,-999.0,76,0.00,,,0.00,WeatherSnoop3.0,2013-05-04 10:17:00,
2013-05-04 05:22:00,37.8,30.9,29.88,West,276,2.0,-999.0,76,0.00,,,0.00,WeatherSnoop3.0,2013-05-04 10:22:00,
2013-05-04 05:27:00,37.7,30.8,29.88,West,278,2.0,-999.0,76,0.00,,,0.00,WeatherSnoop3.0,2013-05-04 10:27:00,
2013-05-04 05:32:00,37.7,30.8,29.88,West,276,2.0,-999.0,76,0.00,,,0.00,WeatherSnoop3.0,2013-05-04 10:32:00,
2013-05-04 05:37:00,37.7,30.8,29.88,WNW,284,2.0,-999.0,76,0.00,,,0.00,WeatherSnoop3.0,2013-05-04 10:37:00,
2013-05-04 05:42:00,37.7,30.8,29.88,WNW,284,2.0,-999.0,76,0.00,,,0.00,WeatherSnoop3.0,2013-05-04 10:42:00,
2013-05-04 05:47:00,37.7,30.5,29.88,WNW,284,1.0,-999.0,75,0.00,,,0.00,WeatherSnoop3.0,2013-05-04 10:47:00,
2013-05-04 05:52:00,37.8,30.9,29.88,WNW,285,2.0,-999.0,76,0.00,,,0.00,WeatherSnoop3.0,2013-05-04 10:52:00,
2013-05-04 05:57:00,37.9,30.7,29.88,West,277,1.0,-999.0,75,0.00,,,0.00,WeatherSnoop3.0,2013-05-04 10:57:00,
2013-05-04 06:02:00,38.1,30.9,29.88,West,264,1.0,-999.0,75,0.00,,,0.00,WeatherSnoop3.0,2013-05-04 11:02:00,
2013-05-04 06:07:00,38.3,30.8,29.88,WNW,289,2.0,-999.0,74,0.00,,,0.00,WeatherSnoop3.0,2013-05-04 11:07:00,
2013-05-04 06:12:00,38.5,30.9,29.88,West,270,2.0,-999.0,74,0.00,,,0.00,WeatherSnoop3.0,2013-05-04 11:12:00,
2013-05-04 06:17:00,38.7,30.5,29.88,West,273,4.0,-999.0,72,0.00,,,0.00,WeatherSnoop3.0,2013-05-04 11:17:00,
2013-05-04 06:22:00,38.8,30.9,29.88,WSW,257,4.0,-999.0,73,0.00,,,0.00,WeatherSnoop3.0,2013-05-04 11:22:00,
2013-05-04 06:27:00,38.7,31.1,29.88,WNW,288,2.0,-999.0,74,0.00,,,0.00,WeatherSnoop3.0,2013-05-04 11:27:00,
2013-05-04 06:32:00,38.7,30.8,29.88,WNW,283,3.0,-999.0,73,0.00,,,0.00,WeatherSnoop3.0,2013-05-04 11:32:00,
2013-05-04 06:37:00,38.8,30.9,29.88,West,281,2.0,-999.0,73,0.00,,,0.00,WeatherSnoop3.0,2013-05-04 11:37:00,
2013-05-04 06:42:00,38.9,30.7,29.88,WNW,300,3.0,-999.0,72,0.00,,,0.00,WeatherSnoop3.0,2013-05-04 11:42:00,
2013-05-04 06:47:00,39.2,30.6,29.88,NW,322,1.0,-999.0,71,0.00,,,0.00,WeatherSnoop3.0,2013-05-04 11:47:00,
2013-05-04 06:55:00,39.7,30.4,29.88,West,281,6.0,-999.0,69,0.00,,,0.00,WeatherSnoop3.0,2013-05-04 11:55:00,
2013-05-04 07:01:00,40.0,30.7,29.88,NNW,340,11.0,-999.0,69,0.00,,,0.00,WeatherSnoop3.0,2013-05-04 12:01:00,
2013-05-04 07:08:00,40.3,29.9,29.87,WSW,242,4.0,-999.0,66,0.00,,,0.00,WeatherSnoop3.0,2013-05-04 12:08:00,
2013-05-04 07:13:00,40.4,29.6,29.87,WNW,295,4.0,-999.0,65,0.00,,,0.00,WeatherSnoop3.0,2013-05-04 12:13:00,
2013-05-04 07:18:00,40.6,29.4,29.87,NNE,18,4.0,-999.0,64,0.00,,,0.00,WeatherSnoop3.0,2013-05-04 12:18:00,
2013-05-04 07:23:00,40.7,30.2,29.87,North,9,6.0,-999.0,66,0.00,,,0.00,WeatherSnoop3.0,2013-05-04 12:23:00,
2013-05-04 07:28:00,40.7,30.2,29.87,ENE,75,2.0,-999.0,66,0.00,,,0.00,WeatherSnoop3.0,2013-05-04 12:28:00,
2013-05-04 07:33:00,40.8,29.6,29.87,West,270,3.0,-999.0,64,0.00,,,0.00,WeatherSnoop3.0,2013-05-04 12:33:00,
2013-05-04 07:38:00,40.9,30.4,29.87,West,276,1.0,-999.0,66,0.00,,,0.00,WeatherSnoop3.0,2013-05-04 12:38:00,
2013-05-04 07:43:00,41.1,30.2,29.88,NW,325,2.0,-999.0,65,0.00,,,0.00,WeatherSnoop3.0,2013-05-04 12:43:00,
2013-05-04 07:48:00,41.2,30.3,29.88,North,357,3.0,-999.0,65,0.00,,,0.00,WeatherSnoop3.0,2013-05-04 12:48:00,
2013-05-04 07:53:00,41.3,30.4,29.88,WNW,285,4.0,-999.0,65,0.00,,,0.00,WeatherSnoop3.0,2013-05-04 12:53:00,
2013-05-04 07:58:00,41.2,30.3,29.88,NNE,13,13.0,-999.0,65,0.00,,,0.00,WeatherSnoop3.0,2013-05-04 12:58:00,
2013-05-04 08:03:00,41.2,30.7,29.88,NW,318,6.0,-999.0,66,0.00,,,0.00,WeatherSnoop3.0,2013-05-04 13:03:00,
2013-05-04 08:05:00,41.2,30.7,29.88,West,273,1.0,-999.0,66,0.00,,,0.00,WeatherSnoop3.0,2013-05-04 13:05:00,
2013-05-04 08:10:00,41.2,30.3,29.87,NNE,27,5.0,-999.0,65,0.00,,,0.00,WeatherSnoop3.0,2013-05-04 13:10:00,
2013-05-04 08:15:00,41.2,30.7,29.88,NNE,26,5.0,-999.0,66,0.00,,,0.00,WeatherSnoop3.0,2013-05-04 13:15:00,
2013-05-04 08:20:00,41.3,30.8,29.88,NNE,23,11.0,-999.0,66,0.00,,,0.00,WeatherSnoop3.0,2013-05-04 13:20:00,
2013-05-04 08:25:00,41.4,31.3,29.88,NNE,22,5.0,-999.0,67,0.00,,,0.00,WeatherSnoop3.0,2013-05-04 13:25:00,
2013-05-04 08:30:00,41.4,30.9,29.88,NE,46,5.0,-999.0,66,0.00,,,0.00,WeatherSnoop3.0,2013-05-04 13:30:00,
2013-05-04 08:35:00,41.5,31.4,29.88,North,8,5.0,-999.0,67,0.00,,,0.00,WeatherSnoop3.0,2013-05-04 13:35:00,
2013-05-04 08:40:00,41.5,31.7,29.89,NNE,33,2.0,-999.0,68,0.00,,,0.00,WeatherSnoop3.0,2013-05-04 13:40:00,
2013-05-04 08:45:00,41.5,32.1,29.89,NNE,32,2.0,-999.0,69,0.00,,,0.00,WeatherSnoop3.0,2013-05-04 13:45:00,
2013-05-04 08:50:00,41.6,31.5,29.89,ENE,70,7.0,-999.0,67,0.00,,,0.00,WeatherSnoop3.0,2013-05-04 13:50:00,
2013-05-04 08:55:00,41.6,31.8,29.89,NE,51,13.0,-999.0,68,0.00,,,0.00,WeatherSnoop3.0,2013-05-04 13:55:00,
2013-05-04 09:00:00,41.5,31.0,29.89,North,353,6.0,-999.0,66,0.00,,,0.00,WeatherSnoop3.0,2013-05-04 14:00:00,
2013-05-04 09:05:00,41.4,30.5,29.89,North,1,2.0,-999.0,65,0.00,,,0.00,WeatherSnoop3.0,2013-05-04 14:05:00,
2013-05-04 09:10:00,41.4,30.9,29.89,NNE,33,9.0,-999.0,66,0.00,,,0.00,WeatherSnoop3.0,2013-05-04 14:10:00,
2013-05-04 09:15:00,41.4,31.3,29.89,East,79,6.0,-999.0,67,0.00,,,0.00,WeatherSnoop3.0,2013-05-04 14:15:00,
2013-05-04 09:20:00,41.5,31.4,29.89,NE,46,5.0,-999.0,67,0.00,,,0.00,WeatherSnoop3.0,2013-05-04 14:20:00,
2013-05-04 09:25:00,41.5,31.4,29.89,NE,41,3.0,-999.0,67,0.00,,,0.00,WeatherSnoop3.0,2013-05-04 14:25:00,
2013-05-04 09:30:00,41.6,31.8,29.89,NE,49,10.0,-999.0,68,0.00,,,0.00,WeatherSnoop3.0,2013-05-04 14:30:00,
2013-05-04 09:35:00,41.6,31.1,29.89,NE,44,11.0,-999.0,66,0.00,,,0.00,WeatherSnoop3.0,2013-05-04 14:35:00,
2013-05-04 09:40:00,41.6,31.1,29.89,North,349,9.0,-999.0,66,0.00,,,0.00,WeatherSnoop3.0,2013-05-04 14:40:00,
2013-05-04 09:45:00,41.7,31.6,29.89,North,4,2.0,-999.0,67,0.00,,,0.00,WeatherSnoop3.0,2013-05-04 14:45:00,
2013-05-04 09:50:00,41.8,31.7,29.89,North,5,13.0,-999.0,67,0.00,,,0.00,WeatherSnoop3.0,2013-05-04 14:50:00,
2013-05-04 09:55:00,41.9,31.8,29.89,NNW,346,12.0,-999.0,67,0.00,,,0.00,WeatherSnoop3.0,2013-05-04 14:55:00,
2013-05-04 10:00:00,42.1,32.7,29.89,NNE,26,4.0,-999.0,69,0.00,,,0.00,WeatherSnoop3.0,2013-05-04 15:00:00,
2013-05-04 10:05:00,42.3,32.5,29.90,NNE,23,10.0,-999.0,68,0.00,,,0.00,WeatherSnoop3.0,2013-05-04 15:05:00,
2013-05-04 10:10:00,42.5,32.3,29.90,NE,51,9.0,-999.0,67,0.00,,,0.00,WeatherSnoop3.0,2013-05-04 15:10:00,
2013-05-04 10:15:00,42.5,33.1,29.90,NNE,23,9.0,-999.0,69,0.00,,,0.00,WeatherSnoop3.0,2013-05-04 15:15:00,
2013-05-04 10:20:00,42.6,33.5,29.90,NE,49,9.0,-999.0,70,0.00,,,0.00,WeatherSnoop3.0,2013-05-04 15:20:00,
2013-05-04 10:25:00,42.6,33.9,29.90,North,356,10.0,-999.0,71,0.00,,,0.00,WeatherSnoop3.0,2013-05-04 15:25:00,
2013-05-04 10:30:00,42.9,34.2,29.90,North,9,4.0,-999.0,71,0.00,,,0.00,WeatherSnoop3.0,2013-05-04 15:30:00,
2013-05-04 10:35:00,43.1,34.7,29.90,ENE,58,9.0,-999.0,72,0.00,,,0.00,WeatherSnoop3.0,2013-05-04 15:35:00,
2013-05-04 10:40:00,43.5,35.1,29.90,North,349,7.0,-999.0,72,0.00,,,0.00,WeatherSnoop3.0,2013-05-04 15:40:00,
2013-05-04 10:45:00,43.6,34.5,29.90,NNE,18,5.0,-999.0,70,0.00,,,0.00,WeatherSnoop3.0,2013-05-04 15:45:00,
2013-05-04 10:50:00,43.8,34.3,29.90,NNE,16,9.0,-999.0,69,0.00,,,0.00,WeatherSnoop3.0,2013-05-04 15:50:00,
2013-05-04 10:55:00,43.6,34.1,29.90,North,357,12.0,-999.0,69,0.00,,,0.00,WeatherSnoop3.0,2013-05-04 15:55:00,
2013-05-04 11:00:00,43.6,34.5,29.91,NNE,33,5.0,-999.0,70,0.00,,,0.00,WeatherSnoop3.0,2013-05-04 16:00:00,
2013-05-04 11:05:00,43.6,34.8,29.91,North,352,7.0,-999.0,71,0.00,,,0.00,WeatherSnoop3.0,2013-05-04 16:05:00,
2013-05-04 11:10:00,43.8,35.0,29.91,North,357,7.0,-999.0,71,0.00,,,0.00,WeatherSnoop3.0,2013-05-04 16:10:00,
2013-05-04 11:15:00,44.1,34.6,29.91,NNE,23,14.0,-999.0,69,0.00,,,0.00,WeatherSnoop3.0,2013-05-04 16:15:00,
2013-05-04 11:20:00,44.3,34.0,29.91,East,92,11.0,-999.0,67,0.00,,,0.00,WeatherSnoop3.0,2013-05-04 16:20:00,
2013-05-04 11:25:00,44.3,34.4,29.92,NNE,18,9.0,-999.0,68,0.00,,,0.00,WeatherSnoop3.0,2013-05-04 16:25:00,
2013-05-04 11:30:00,44.3,34.0,29.92,NNW,345,8.0,-999.0,67,0.00,,,0.00,WeatherSnoop3.0,2013-05-04 16:30:00,
2013-05-04 11:35:00,44.4,34.5,29.92,WSW,248,12.0,-999.0,68,0.00,,,0.00,WeatherSnoop3.0,2013-05-04 16:35:00,
2013-05-04 11:40:00,44.4,34.5,29.92,North,4,13.0,-999.0,68,0.00,,,0.00,WeatherSnoop3.0,2013-05-04 16:40:00,
2013-05-04 11:45:00,44.7,34.8,29.92,NE,56,4.0,-999.0,68,0.00,,,0.00,WeatherSnoop3.0,2013-05-04 16:45:00,
2013-05-04 11:50:00,45.2,34.9,29.92,North,4,5.0,-999.0,67,0.00,,,0.00,WeatherSnoop3.0,2013-05-04 16:50:00,
2013-05-04 11:55:00,45.6,35.3,29.92,NNE,20,4.0,-999.0,67,0.00,,,0.00,WeatherSnoop3.0,2013-05-04 16:55:00,
2013-05-04 12:00:00,45.5,34.8,29.92,NE,43,10.0,-999.0,66,0.00,,,0.00,WeatherSnoop3.0,2013-05-04 17:00:00,
2013-05-04 12:05:00,45.6,35.7,29.92,North,357,9.0,-999.0,68,0.00,,,0.00,WeatherSnoop3.0,2013-05-04 17:05:00,
2013-05-04 12:10:00,45.7,35.4,29.92,NE,43,12.0,-999.0,67,0.00,,,0.00,WeatherSnoop3.0,2013-05-04 17:10:00,
2013-05-04 12:15:00,45.5,35.6,29.92,East,81,9.0,-999.0,68,0.00,,,0.00,WeatherSnoop3.0,2013-05-04 17:15:00,
2013-05-04 12:20:00,45.5,35.9,29.93,NNE,27,4.0,-999.0,69,0.00,,,0.00,WeatherSnoop3.0,2013-05-04 17:20:00,
2013-05-04 12:25:00,45.3,35.4,29.93,NE,46,7.0,-999.0,68,0.00,,,0.00,WeatherSnoop3.0,2013-05-04 17:25:00,
2013-05-04 12:30:00,45.2,35.6,29.93,NNE,25,16.0,-999.0,69,0.00,,,0.00,WeatherSnoop3.0,2013-05-04 17:30:00,
2013-05-04 12:35:00,45.0,35.8,29.93,WNW,285,7.0,-999.0,70,0.00,,,0.00,WeatherSnoop3.0,2013-05-04 17:35:00,
2013-05-04 12:40:00,44.7,36.2,29.93,ENE,77,18.0,-999.0,72,0.00,,,0.00,WeatherSnoop3.0,2013-05-04 17:40:00,
2013-05-04 12:45:00,44.1,37.0,29.93,North,11,12.0,-999.0,76,0.00,,,0.00,WeatherSnoop3.0,2013-05-04 17:45:00,
2013-05-04 12:50:00,43.3,36.9,29.93,NNE,20,9.0,-999.0,78,0.00,,,0.00,WeatherSnoop3.0,2013-05-04 17:50:00,
2013-05-04 12:55:00,42.9,37.2,29.93,NNE,29,8.0,-999.0,80,0.00,,,0.00,WeatherSnoop3.0,2013-05-04 17:55:00,
2013-05-04 13:00:00,42.9,37.5,29.93,NNE,24,8.0,-999.0,81,0.00,,,0.00,WeatherSnoop3.0,2013-05-04 18:00:00,
2013-05-04 13:05:00,43.2,37.8,29.92,North,352,8.0,-999.0,81,0.00,,,0.00,WeatherSnoop3.0,2013-05-04 18:05:00,
2013-05-04 13:10:00,43.4,38.0,29.93,NNW,342,11.0,-999.0,81,0.00,,,0.00,WeatherSnoop3.0,2013-05-04 18:10:00,
2013-05-04 13:15:00,43.5,38.1,29.92,NNE,15,7.0,-999.0,81,0.00,,,0.00,WeatherSnoop3.0,2013-05-04 18:15:00,
2013-05-04 13:20:00,43.9,38.8,29.92,North,359,6.0,-999.0,82,0.00,,,0.00,WeatherSnoop3.0,2013-05-04 18:20:00,
2013-05-04 13:25:00,44.5,38.7,29.92,NNE,33,13.0,-999.0,80,0.00,,,0.00,WeatherSnoop3.0,2013-05-04 18:25:00,
2013-05-04 13:30:00,45.3,38.9,29.92,NE,49,12.0,-999.0,78,0.00,,,0.00,WeatherSnoop3.0,2013-05-04 18:30:00,
2013-05-04 13:35:00,46.1,39.3,29.92,NNE,12,5.0,-999.0,77,0.00,,,0.00,WeatherSnoop3.0,2013-05-04 18:35:00,
2013-05-04 13:40:00,46.4,38.2,29.92,North,354,8.0,-999.0,73,0.00,,,0.00,WeatherSnoop3.0,2013-05-04 18:40:00,
2013-05-04 13:45:00,46.6,38.4,29.92,NNW,342,11.0,-999.0,73,0.00,,,0.00,WeatherSnoop3.0,2013-05-04 18:45:00,
2013-05-04 13:50:00,47.1,39.2,29.93,North,9,5.0,-999.0,74,0.00,,,0.00,WeatherSnoop3.0,2013-05-04 18:50:00,
2013-05-04 13:55:00,46.8,38.6,29.93,North,1,15.0,-999.0,73,0.00,,,0.00,WeatherSnoop3.0,2013-05-04 18:55:00,
2013-05-04 14:00:00,46.3,38.5,29.93,NNE,30,11.0,-999.0,74,0.00,,,0.00,WeatherSnoop3.0,2013-05-04 19:00:00,
2013-05-04 14:05:00,46.0,38.2,29.93,NNE,13,11.0,-999.0,74,0.00,,,0.00,WeatherSnoop3.0,2013-05-04 19:05:00,
2013-05-04 14:10:00,45.6,37.8,29.93,NNE,26,10.0,-999.0,74,0.00,,,0.00,WeatherSnoop3.0,2013-05-04 19:10:00,
2013-05-04 14:15:00,45.3,38.2,29.93,North,4,7.0,-999.0,76,0.00,,,0.00,WeatherSnoop3.0,2013-05-04 19:15:00,
2013-05-04 14:20:00,45.4,38.3,29.93,NNE,32,10.0,-999.0,76,0.00,,,0.00,WeatherSnoop3.0,2013-05-04 19:20:00,
2013-05-04 14:25:00,45.5,38.4,29.93,NW,320,6.0,-999.0,76,0.00,,,0.00,WeatherSnoop3.0,2013-05-04 19:25:00,
2013-05-04 14:30:00,45.8,39.0,29.93,North,359,10.0,-999.0,77,0.00,,,0.00,WeatherSnoop3.0,2013-05-04 19:30:00,
2013-05-04 14:35:00,46.1,38.6,29.93,NNW,342,4.0,-999.0,75,0.00,,,0.00,WeatherSnoop3.0,2013-05-04 19:35:00,
2013-05-04 14:40:00,46.5,38.7,29.93,NW,313,7.0,-999.0,74,0.00,,,0.00,WeatherSnoop3.0,2013-05-04 19:40:00,
2013-05-04 14:45:00,46.7,38.9,29.93,ENE,75,8.0,-999.0,74,0.00,,,0.00,WeatherSnoop3.0,2013-05-04 19:45:00,
2013-05-04 14:50:00,47.1,38.9,29.93,North,359,6.0,-999.0,73,0.00,,,0.00,WeatherSnoop3.0,2013-05-04 19:50:00,
2013-05-04 14:55:00,47.0,38.8,29.93,NNE,18,8.0,-999.0,73,0.00,,,0.00,WeatherSnoop3.0,2013-05-04 19:55:00,
2013-05-04 15:00:00,47.1,39.2,29.93,North,6,7.0,-999.0,74,0.00,,,0.00,WeatherSnoop3.0,2013-05-04 20:00:00,
2013-05-04 15:05:00,47.4,39.2,29.93,NNE,30,9.0,-999.0,73,0.00,,,0.00,WeatherSnoop3.0,2013-05-04 20:05:00,
2013-05-04 15:10:00,47.6,39.4,29.92,North,5,7.0,-999.0,73,0.00,,,0.00,WeatherSnoop3.0,2013-05-04 20:10:00,
2013-05-04 15:15:00,47.9,38.6,29.92,NW,321,11.0,-999.0,70,0.00,,,0.00,WeatherSnoop3.0,2013-05-04 20:15:00,
2013-05-04 15:20:00,47.8,38.9,29.92,NNE,23,13.0,-999.0,71,0.00,,,0.00,WeatherSnoop3.0,2013-05-04 20:20:00,
2013-05-04 15:25:00,48.2,39.2,29.92,NE,47,10.0,-999.0,71,0.00,,,0.00,WeatherSnoop3.0,2013-05-04 20:25:00,
2013-05-04 15:30:00,48.7,39.7,29.92,NNE,22,5.0,-999.0,71,0.00,,,0.00,WeatherSnoop3.0,2013-05-04 20:30:00,
2013-05-04 15:35:00,49.3,40.7,29.91,ENE,60,3.0,-999.0,72,0.00,,,0.00,WeatherSnoop3.0,2013-05-04 20:35:00,
2013-05-04 15:40:00,49.6,39.9,29.92,NE,37,9.0,-999.0,69,0.00,,,0.00,WeatherSnoop3.0,2013-05-04 20:40:00,
2013-05-04 15:45:00,49.6,39.9,29.92,NE,44,4.0,-999.0,69,0.00,,,0.00,WeatherSnoop3.0,2013-05-04 20:45:00,
2013-05-04 15:50:00,49.8,40.4,29.92,NE,34,16.0,-999.0,70,0.00,,,0.00,WeatherSnoop3.0,2013-05-04 20:50:00,
2013-05-04 15:55:00,50.0,40.2,29.92,NNW,338,5.0,-999.0,69,0.00,,,0.00,WeatherSnoop3.0,2013-05-04 20:55:00,
2013-05-04 16:00:00,49.9,40.1,29.92,NNE,23,10.0,-999.0,69,0.00,,,0.00,WeatherSnoop3.0,2013-05-04 21:00:00,
2013-05-04 16:05:00,49.5,39.8,29.92,NNE,15,7.0,-999.0,69,0.00,,,0.00,WeatherSnoop3.0,2013-05-04 21:05:00,
2013-05-04 16:11:00,49.5,39.8,29.92,NE,36,15.0,-999.0,69,0.00,,,0.00,WeatherSnoop3.0,2013-05-04 21:11:00,
2013-05-04 16:16:00,49.2,39.5,29.93,NNE,25,13.0,-999.0,69,0.00,,,0.00,WeatherSnoop3.0,2013-05-04 21:16:00,
2013-05-04 16:21:00,49.1,39.4,29.93,NNE,13,14.0,-999.0,69,0.00,,,0.00,WeatherSnoop3.0,2013-05-04 21:21:00,
2013-05-04 16:26:00,48.9,39.9,29.93,NNE,23,9.0,-999.0,71,0.00,,,0.00,WeatherSnoop3.0,2013-05-04 21:26:00,
2013-05-04 16:31:00,49.1,40.1,29.93,WSW,248,11.0,-999.0,71,0.00,,,0.00,WeatherSnoop3.0,2013-05-04 21:31:00,
2013-05-04 16:36:00,49.1,39.4,29.93,NE,41,13.0,-999.0,69,0.00,,,0.00,WeatherSnoop3.0,2013-05-04 21:36:00,
2013-05-04 16:41:00,49.0,40.0,29.93,NNE,20,6.0,-999.0,71,0.00,,,0.00,WeatherSnoop3.0,2013-05-04 21:41:00,
2013-05-04 16:46:00,48.9,39.9,29.93,North,6,11.0,-999.0,71,0.00,,,0.00,WeatherSnoop3.0,2013-05-04 21:46:00,
2013-05-04 16:51:00,48.8,39.8,29.93,NNE,19,12.0,-999.0,71,0.00,,,0.00,WeatherSnoop3.0,2013-05-04 21:51:00,
2013-05-04 16:56:00,48.8,39.8,29.93,NNW,328,7.0,-999.0,71,0.00,,,0.00,WeatherSnoop3.0,2013-05-04 21:56:00,
2013-05-04 17:01:00,48.8,40.2,29.93,NNE,18,10.0,-999.0,72,0.00,,,0.00,WeatherSnoop3.0,2013-05-04 22:01:00,
2013-05-04 17:06:00,49.1,40.5,29.93,NNE,24,5.0,-999.0,72,0.00,,,0.00,WeatherSnoop3.0,2013-05-04 22:06:00,
2013-05-04 17:11:00,49.0,40.0,29.93,NNE,20,11.0,-999.0,71,0.00,,,0.00,WeatherSnoop3.0,2013-05-04 22:11:00,
2013-05-04 17:16:00,48.8,39.8,29.93,NE,44,5.0,-999.0,71,0.00,,,0.00,WeatherSnoop3.0,2013-05-04 22:16:00,
2013-05-04 17:21:00,48.9,41.0,29.94,North,351,6.0,-999.0,74,0.00,,,0.00,WeatherSnoop3.0,2013-05-04 22:21:00,
2013-05-04 17:26:00,49.0,40.4,29.94,NNE,29,12.0,-999.0,72,0.00,,,0.00,WeatherSnoop3.0,2013-05-04 22:26:00,
2013-05-04 17:31:00,48.8,40.2,29.94,NE,51,7.0,-999.0,72,0.00,,,0.00,WeatherSnoop3.0,2013-05-04 22:31:00,
2013-05-04 17:36:00,48.6,40.0,29.94,NE,46,6.0,-999.0,72,0.00,,,0.00,WeatherSnoop3.0,2013-05-04 22:36:00,
2013-05-04 17:41:00,48.6,40.7,29.94,ENE,70,6.0,-999.0,74,0.00,,,0.00,WeatherSnoop3.0,2013-05-04 22:41:00,
2013-05-04 17:46:00,48.6,40.3,29.94,NNE,16,14.0,-999.0,73,0.00,,,0.00,WeatherSnoop3.0,2013-05-04 22:46:00,
2013-05-04 17:51:00,48.4,40.2,29.95,North,9,13.0,-999.0,73,0.00,,,0.00,WeatherSnoop3.0,2013-05-04 22:51:00,
2013-05-04 17:56:00,48.3,40.4,29.95,NNE,20,5.0,-999.0,74,0.00,,,0.00,WeatherSnoop3.0,2013-05-04 22:56:00,
2013-05-04 18:01:00,48.4,41.2,29.95,NNE,16,9.0,-999.0,76,0.00,,,0.00,WeatherSnoop3.0,2013-05-04 23:01:00,
2013-05-04 18:06:00,48.3,40.4,29.95,NE,41,9.0,-999.0,74,0.00,,,0.00,WeatherSnoop3.0,2013-05-04 23:06:00,
2013-05-04 18:11:00,48.3,40.8,29.95,North,8,6.0,-999.0,75,0.00,,,0.00,WeatherSnoop3.0,2013-05-04 23:11:00,
2013-05-04 18:16:00,48.1,40.6,29.95,NNE,13,9.0,-999.0,75,0.00,,,0.00,WeatherSnoop3.0,2013-05-04 23:16:00,
2013-05-04 18:21:00,47.9,41.0,29.95,East,84,5.0,-999.0,77,0.00,,,0.00,WeatherSnoop3.0,2013-05-04 23:21:00,
2013-05-04 18:26:00,47.7,40.5,29.95,ENE,68,18.0,-999.0,76,0.00,,,0.00,WeatherSnoop3.0,2013-05-04 23:26:00,
2013-05-04 18:31:00,47.5,40.7,29.96,NNE,29,13.0,-999.0,77,0.00,,,0.00,WeatherSnoop3.0,2013-05-04 23:31:00,
2013-05-04 18:36:00,47.3,40.5,29.96,NNW,336,5.0,-999.0,77,0.00,,,0.00,WeatherSnoop3.0,2013-05-04 23:36:00,
2013-05-04 18:41:00,47.3,40.8,29.96,NNE,29,11.0,-999.0,78,0.00,,,0.00,WeatherSnoop3.0,2013-05-04 23:41:00,
2013-05-04 18:46:00,47.1,40.6,29.96,NNE,32,5.0,-999.0,78,0.00,,,0.00,WeatherSnoop3.0,2013-05-04 23:46:00,
2013-05-04 18:51:00,46.9,40.7,29.97,NNE,16,10.0,-999.0,79,0.00,,,0.00,WeatherSnoop3.0,2013-05-04 23:51:00,
2013-05-04 18:56:00,46.6,40.4,29.97,NE,40,5.0,-999.0,79,0.00,,,0.00,WeatherSnoop3.0,2013-05-04 23:56:00,
2013-05-04 19:01:00,46.4,40.6,29.97,North,351,8.0,-999.0,80,0.00,,,0.00,WeatherSnoop3.0,2013-05-05 00:01:00,
2013-05-04 19:06:00,46.1,40.3,29.97,NNW,342,6.0,-999.0,80,0.00,,,0.00,WeatherSnoop3.0,2013-05-05 00:06:00,
2013-05-04 19:11:00,45.9,40.1,29.97,NE,37,9.0,-999.0,80,0.00,,,0.00,WeatherSnoop3.0,2013-05-05 00:11:00,
2013-05-04 19:16:00,45.7,40.2,29.97,North,349,10.0,-999.0,81,0.00,,,0.00,WeatherSnoop3.0,2013-05-05 00:16:00,
2013-05-04 19:21:00,45.5,40.0,29.98,NNW,347,10.0,-999.0,81,0.00,,,0.00,WeatherSnoop3.0,2013-05-05 00:21:00,
2013-05-04 19:26:00,45.3,40.1,29.98,NE,47,6.0,-999.0,82,0.00,,,0.00,WeatherSnoop3.0,2013-05-05 00:26:00,
2013-05-04 19:31:00,45.2,40.0,29.98,NNE,23,10.0,-999.0,82,0.00,,,0.00,WeatherSnoop3.0,2013-05-05 00:31:00,
2013-05-04 19:36:00,45.1,40.3,29.98,NE,47,10.0,-999.0,83,0.00,,,0.00,WeatherSnoop3.0,2013-05-05 00:36:00,
2013-05-04 19:41:00,45.0,40.5,29.99,NNE,20,1.0,-999.0,84,0.00,,,0.00,WeatherSnoop3.0,2013-05-05 00:41:00,
2013-05-04 19:46:00,44.9,40.1,29.99,NNE,16,6.0,-999.0,83,0.00,,,0.00,WeatherSnoop3.0,2013-05-05 00:46:00,
2013-05-04 19:51:00,44.8,40.3,29.99,NNE,32,9.0,-999.0,84,0.00,,,0.00,WeatherSnoop3.0,2013-05-05 00:51:00,
2013-05-04 19:56:00,44.7,40.2,29.99,NNE,23,5.0,-999.0,84,0.00,,,0.00,WeatherSnoop3.0,2013-05-05 00:56:00,
2013-05-04 20:01:00,44.7,40.2,29.99,NE,39,4.0,-999.0,84,0.00,,,0.00,WeatherSnoop3.0,2013-05-05 01:01:00,
2013-05-04 20:06:00,44.6,40.1,30.00,NE,41,3.0,-999.0,84,0.00,,,0.00,WeatherSnoop3.0,2013-05-05 01:06:00,
2013-05-04 20:11:00,44.6,40.1,30.00,NE,46,7.0,-999.0,84,0.00,,,0.00,WeatherSnoop3.0,2013-05-05 01:11:00,
2013-05-04 20:16:00,44.5,40.0,30.00,NNW,348,4.0,-999.0,84,0.00,,,0.00,WeatherSnoop3.0,2013-05-05 01:16:00,
2013-05-04 20:21:00,44.5,40.3,30.00,NE,39,5.0,-999.0,85,0.00,,,0.00,WeatherSnoop3.0,2013-05-05 01:21:00,
2013-05-04 20:26:00,44.4,39.9,30.00,North,8,8.0,-999.0,84,0.00,,,0.00,WeatherSnoop3.0,2013-05-05 01:26:00,
2013-05-04 20:31:00,44.3,39.8,30.00,North,357,8.0,-999.0,84,0.00,,,0.00,WeatherSnoop3.0,2013-05-05 01:31:00,
2013-05-04 20:36:00,44.3,39.8,30.00,NNE,15,6.0,-999.0,84,0.00,,,0.00,WeatherSnoop3.0,2013-05-05 01:36:00,
2013-05-04 20:41:00,44.2,40.0,30.00,NNE,20,8.0,-999.0,85,0.00,,,0.00,WeatherSnoop3.0,2013-05-05 01:41:00,
2013-05-04 20:46:00,44.0,40.1,30.00,NNW,347,7.0,-999.0,86,0.00,,,0.00,WeatherSnoop3.0,2013-05-05 01:46:00,
2013-05-04 20:51:00,44.0,40.1,30.01,NNE,26,5.0,-999.0,86,0.00,,,0.00,WeatherSnoop3.0,2013-05-05 01:51:00,
2013-05-04 20:56:00,44.0,40.1,30.01,NE,41,2.0,-999.0,86,0.00,,,0.00,WeatherSnoop3.0,2013-05-05 01:56:00,
2013-05-04 21:01:00,43.9,40.3,30.01,NNW,340,2.0,-999.0,87,0.00,,,0.00,WeatherSnoop3.0,2013-05-05 02:01:00,
2013-05-04 21:06:00,43.8,40.2,30.01,NNE,16,5.0,-999.0,87,0.00,,,0.00,WeatherSnoop3.0,2013-05-05 02:06:00,
2013-05-04 21:11:00,43.7,40.1,30.01,NNE,12,7.0,-999.0,87,0.00,,,0.00,WeatherSnoop3.0,2013-05-05 02:11:00,
2013-05-04 21:16:00,43.6,40.3,30.02,NNE,33,7.0,-999.0,88,0.00,,,0.00,WeatherSnoop3.0,2013-05-05 02:16:00,
2013-05-04 21:21:00,43.6,40.3,30.02,NE,36,6.0,-999.0,88,0.00,,,0.00,WeatherSnoop3.0,2013-05-05 02:21:00,
2013-05-04 21:26:00,43.6,40.3,30.02,NNE,22,1.0,-999.0,88,0.00,,,0.00,WeatherSnoop3.0,2013-05-05 02:26:00,
2013-05-04 21:31:00,43.5,40.2,30.02,NE,43,4.0,-999.0,88,0.00,,,0.00,WeatherSnoop3.0,2013-05-05 02:31:00,
2013-05-04 21:36:00,43.5,40.2,30.03,NE,36,5.0,-999.0,88,0.00,,,0.00,WeatherSnoop3.0,2013-05-05 02:36:00,
2013-05-04 21:41:00,43.5,40.2,30.03,NE,34,6.0,-999.0,88,0.00,,,0.00,WeatherSnoop3.0,2013-05-05 02:41:00,
2013-05-04 21:46:00,43.5,40.5,30.03,NW,307,3.0,-999.0,89,0.00,,,0.00,WeatherSnoop3.0,2013-05-05 02:46:00,
2013-05-04 21:51:00,43.4,40.4,30.03,NE,56,2.0,-999.0,89,0.00,,,0.00,WeatherSnoop3.0,2013-05-05 02:51:00,
2013-05-04 21:56:00,43.3,40.3,30.03,NNW,342,5.0,-999.0,89,0.00,,,0.00,WeatherSnoop3.0,2013-05-05 02:56:00,
2013-05-04 22:01:00,43.3,40.6,30.04,NW,315,4.0,-999.0,90,0.00,,,0.00,WeatherSnoop3.0,2013-05-05 03:01:00,
2013-05-04 22:06:00,43.3,40.6,30.03,NNW,331,2.0,-999.0,90,0.00,,,0.00,WeatherSnoop3.0,2013-05-05 03:06:00,
2013-05-04 22:11:00,43.3,40.6,30.04,North,8,4.0,-999.0,90,0.00,,,0.00,WeatherSnoop3.0,2013-05-05 03:11:00,
2013-05-04 22:16:00,43.2,40.5,30.04,NNE,14,3.0,-999.0,90,0.00,,,0.00,WeatherSnoop3.0,2013-05-05 03:16:00,
2013-05-04 22:21:00,43.3,40.3,30.05,NW,316,3.0,-999.0,89,0.00,,,0.00,WeatherSnoop3.0,2013-05-05 03:21:00,
2013-05-04 22:26:00,43.3,40.3,30.05,NE,36,7.0,-999.0,89,0.00,,,0.00,WeatherSnoop3.0,2013-05-05 03:26:00,
2013-05-04 22:31:00,43.2,40.5,30.05,ENE,62,3.0,-999.0,90,0.00,,,0.00,WeatherSnoop3.0,2013-05-05 03:31:00,
2013-05-04 22:36:00,43.2,40.5,30.05,NNW,332,3.0,-999.0,90,0.00,,,0.00,WeatherSnoop3.0,2013-05-05 03:36:00,
2013-05-04 22:41:00,43.2,40.5,30.05,NE,46,4.0,-999.0,90,0.00,,,0.00,WeatherSnoop3.0,2013-05-05 03:41:00,
2013-05-04 22:46:00,43.2,40.5,30.05,North,6,6.0,-999.0,90,0.00,,,0.00,WeatherSnoop3.0,2013-05-05 03:46:00,
2013-05-04 22:51:00,43.1,40.4,30.04,NE,44,2.0,-999.0,90,0.00,,,0.00,WeatherSnoop3.0,2013-05-05 03:51:00,
2013-05-04 22:56:00,43.0,40.3,30.04,NNE,23,9.0,-999.0,90,0.00,,,0.00,WeatherSnoop3.0,2013-05-05 03:56:00,
2013-05-04 23:01:00,43.0,40.3,30.04,WNW,300,4.0,-999.0,90,0.00,,,0.00,WeatherSnoop3.0,2013-05-05 04:01:00,
2013-05-04 23:02:00,43.0,40.6,30.04,ENE,74,1.0,-999.0,91,0.00,,,0.00,WeatherSnoop3.0,2013-05-05 04:02:00,
2013-05-04 23:03:00,43.0,40.6,30.04,NNE,23,11.0,-999.0,91,0.00,,,0.00,WeatherSnoop3.0,2013-05-05 04:03:00,
2013-05-04 23:04:00,43.0,40.3,30.04,North,357,6.0,-999.0,90,0.00,,,0.00,WeatherSnoop3.0,2013-05-05 04:04:00,
2013-05-04 23:08:00,43.0,40.3,30.04,North,11,2.0,-999.0,90,0.00,,,0.00,WeatherSnoop3.0,2013-05-05 04:08:00,
2013-05-04 23:13:00,43.0,40.6,30.04,North,8,4.0,-999.0,91,0.00,,,0.00,WeatherSnoop3.0,2013-05-05 04:13:00,
2013-05-04 23:18:00,42.9,40.5,30.04,NNE,18,2.0,-999.0,91,0.00,,,0.00,WeatherSnoop3.0,2013-05-05 04:18:00,
2013-05-04 23:23:00,42.9,40.5,30.05,NNE,30,7.0,-999.0,91,0.00,,,0.00,WeatherSnoop3.0,2013-05-05 04:23:00,
2013-05-04 23:28:00,42.9,40.2,30.05,North,1,5.0,-999.0,90,0.00,,,0.00,WeatherSnoop3.0,2013-05-05 04:28:00,
2013-05-04 23:33:00,42.8,40.4,30.05,NNE,23,6.0,-999.0,91,0.00,,,0.00,WeatherSnoop3.0,2013-05-05 04:33:00,
2013-05-04 23:38:00,42.8,40.4,30.05,NNE,15,6.0,-999.0,91,0.00,,,0.00,WeatherSnoop3.0,2013-05-05 04:38:00,
2013-05-04 23:43:00,42.7,40.3,30.05,NE,39,3.0,-999.0,91,0.00,,,0.00,WeatherSnoop3.0,2013-05-05 04:43:00,
2013-05-04 23:48:00,42.7,40.3,30.05,NE,40,6.0,-999.0,91,0.00,,,0.00,WeatherSnoop3.0,2013-05-05 04:48:00,
2013-05-04 23:53:00,42.7,40.3,30.06,NNE,21,5.0,-999.0,91,0.00,,,0.00,WeatherSnoop3.0,2013-05-05 04:53:00,
2013-05-04 23:58:00,42.8,40.1,30.06,NNE,32,3.0,-999.0,90,0.00,,,0.00,WeatherSnoop3.0,2013-05-05 04:58:00,